Regional Weather Roundup
Issued by NWS Upton, NY

Current Version | Previous Version | Graphics & Text | Print | Product List | Glossary Off
Versions: 1 2 3 4 5 6 7 8 9 10 11 12 13 14 15 16 17 18 19 20 21 22 23 24 25 26 27 28

000
ASUS41 KOKX 250108
RWROKX

REGIONAL WEATHER ROUNDUP
NATIONAL WEATHER SERVICE NEW YORK NY
900 PM EDT SUN SEP 24 2017

NOTE: "FAIR" INDICATES FEW OR NO CLOUDS BELOW 12,000 FEET WITH NO
SIGNIFICANT WEATHER AND/OR OBSTRUCTIONS TO VISIBILITY.

NYZ071-072-176-178-NJZ106-104-250200-
NEW YORK CITY METRO AREA

CITY           SKY/WX    TMP DP  RH WIND       PRES   REMARKS
Central Park   CLEAR     78  63  59 S3        30.08R
Bronx Bot Gard   N/A     75  59  57 SE3       30.06R
LaGuardia APRT PTCLDY    77  63  61 S7        30.04R
Kennedy INTL   PTCLDY    72  66  81 S5        30.06R
Breezy Point     N/A     72 N/A N/A S5          N/A
Newark/Liberty CLEAR     79  64  60 E3        30.04R
Teterboro      CLEAR     77  65  66 SW6       30.03R
$$

NYZ177-179-078>081-250200-
LONG ISLAND NEW YORK

CITY           SKY/WX    TMP DP  RH WIND       PRES   REMARKS
Jones Beach      N/A     72 N/A N/A CALM        N/A
Matinecock PT    N/A     75 N/A N/A SW7         N/A
Farmingdale    CLEAR     73  65  75 SW6       30.05R
MacArthur/ISP  PTCLDY    72  62  71 S6        30.04S
Shirley        CLEAR     69  63  81 CALM      30.05S
Mt Sinai Harb    N/A     72 N/A N/A S3          N/A
Westhampton    CLEAR     64  58  80 CALM      30.06S
East Hampton   FAIR      63  59  89 CALM      30.04S
Montauk          N/A     68  65  90 CALM      30.06R
$$

NYZ052-065-067-250200-
HUDSON VALLEY

CITY           SKY/WX    TMP DP  RH WIND       PRES   REMARKS
White Plains   CLEAR     74  64  71 S3        30.05R
Larchmont Harb   N/A     75 N/A N/A S9          N/A
Croton On Huds   N/A     75 N/A N/A MISG        N/A
Newburgh       CLEAR     75  70  83 CALM      30.07R
Montgomery     CLEAR     70  68  93 CALM      30.05R
Poughkeepsie   CLEAR     71  67  87 CALM      30.03R
Albany         CLEAR     73  68  84 CALM      30.05R
$$

NJZ001-105-106-008-010-013-015-019>022-104-250200-
NEW JERSEY

CITY           SKY/WX    TMP DP  RH WIND       PRES   REMARKS
Newark/Liberty CLEAR     79  64  60 E3        30.04R
Teterboro      CLEAR     77  65  66 SW6       30.03R
Caldwell       CLEAR     76  69  79 CALM      30.05R
Somerville     NOT AVBL
Linden         FAIR      78  66  64 CALM      30.05R
Perth Amboy      N/A     77 N/A N/A SE2         N/A
Sussex         CLEAR     71  70  96 CALM      30.07R
Andover          N/A     70  68  93 CALM      30.08R
Trenton        CLEAR     79  66  64 CALM      30.05R
Millville      CLEAR     70  67  90 CALM      30.05S
Atlantic City  CLEAR     72  66  81 CALM      30.05S
Wrightstown    CLEAR     73  66  79 SE3       30.03R
Toms River     CLEAR     69  65  86 CALM      30.06S
Belmar         CLEAR     73  63  70 S5        30.07R
$$

PAZ047>061-062-071-250200-
EASTERN PENNSYLVANIA

CITY           SKY/WX    TMP DP  RH WIND       PRES   REMARKS
Philadelphia   CLEAR     78  65  63 S5        30.05S
Allentown      CLEAR     77  65  66 CALM      30.07R
Scranton       CLEAR     76  66  71 E6        30.10R
$$

CTZ002-004>006-009-010-012-RIZ004-006-007-MAZ004-011-015-250200-
SOUTHERN NEW ENGLAND
 IN CT

CITY           SKY/WX    TMP DP  RH WIND       PRES   REMARKS
Bradley INTL   PTCLDY    76  69  79 SE5       30.03R
Hartford       CLEAR     75  68  78 CALM      30.03R
Danbury        CLEAR     71  68  90 SW3       30.07R
Wtrbury/Oxford CLEAR     71  65  81 CALM      30.08R
Norwalk Harbor   N/A     73 N/A N/A SW2         N/A
Bridgeport     CLEAR     75  64  68 CALM      30.04R
Meriden        CLEAR     70  65  84 CALM      30.04R
New Haven      CLEAR     72  64  76 CALM      30.05R
Chester        FAIR      70  64  83 MISG      30.06S
Groton         CLEAR     67  62  84 CALM      30.04R
Wilimantic     CLEAR     74  67  78 CALM      30.05R

 IN RI

CITY           SKY/WX    TMP DP  RH WIND       PRES   REMARKS
Providence     CLEAR     69  62  78 S3        30.05R
Block Island   CLEAR     67  63  87 S3        30.06R
Westerly       CLEAR     67  62  84 CALM      30.06R
 IN MA

CITY           SKY/WX    TMP DP  RH WIND       PRES   REMARKS
Boston         CLEAR     70  64  81 CALM      30.04R
Worcester      CLEAR     76  63  64 CALM      30.07F
Westfield      CLEAR     72  68  87 CALM      30.04R
Provincetown   CLEAR     66  65  96 SE6       30.05R
Nantucket      FOG       61  61 100 NE6       30.04S VSB 3/4
$$

ANZ330-335-338-340-345-350-353-355-250200-
COASTAL MARINE OBSERVATIONS


STATION/POSITION TIME  SKY/WX   TEMP    WIND        PRES    VSBY  WAVE
                                AIR SEA DIR/SP/G                  HT/PER
                 (UTC)          (F)     (DEG/KT/KT) (MB)    (MI)  (FT/S)
NY HARB ENTRANCE 2350            73 72  180/  6/  8 1016.4          3/11
20 S FIRE ISLAND 2350            69 68  240/  4/  4 1017.2          4/13
GREAT SOUTH BAY  0030            72 73  220/  4/  4   N/A
23 SSW MONTAUK P 2350            68 66              1017.5          5/14
15 E BARNEGAT LI 0030               71                N/A           3/11
HUDSON CANYON    2350            68 69   50/  6/  8 1016.5          6/13
KINGS POINT      0030            75 73  200/  7/  8 1018.0
EXECUTION ROCKS  0045            76     170/  6/  8   N/A
WESTERN LI SOUND NOT AVBL
CENTRAL LI SOUND 0030            73     180/  4/  6   N/A           0
EASTERN LI SOUND NOT AVBL
ROBBINS REEF     0048            74     180/  7/  9 1018.2
$$


>>>>>>>>>>>>>>>>>>>>>>>>>>>> KEY <<<<<<<<<<<<<<<<<<<<<<<<<<<
>                                                          <
>     SKY/WX - Sky Condition/Present Weather               <
>     TMP    - Temperature in Fahrenheit                   <
>     DP     - Dew Point in Fahrenheit                     <
>     RH     - Relative Humidity in Percent                <
>     WIND   - Direction (from) and Speed in MPH           <
>     PRES   - Mean Sea Level Pressure (inches of Hg)      <
>     WCI    - Wind Chill Index                            <
>     VSB    - VISIBILITY IN MILES                         <
>     HX     - HEAT INDEX                                  <
>     TC     - TEMPERATURE IN CELSIUS                      <
>     VRB    - VARIABLE WIND DIRECTION                     <
>                                                          <
>>>>>>>>>>>>>>>>>>>>>>>>>>>> KEY <<<<<<<<<<<<<<<<<<<<<<<<<<<




USA.gov is the U.S. government's official web portal to all federal, state and local government web resources and services.